QPF
0.00 0.00 0.01 0.01 0.01 0.01 0.01 0.01 0.01 0.01 0.01 0.01 0.01 0.01 0.01 0.00 0.00 0.00 0.01 0.03 0.03 0.03 0.07 0.08 0.06 0.04 0.04 0.03 0.04 0.04 0.03 0.02 0.03 0.03 0.03 0.04 0.06 0.06 0.05 0.06 0.06 0.05 0.05 0.04 0.04 0.03 0.03 0.03 0.03
0.00 0.00 0.01 0.01 0.00 0.00 0.01 0.02 0.02 0.01 0.01 0.01 0.01 0.00 0.00 0.00 0.00 0.01 0.01 0.02 0.02 0.01 0.04 0.04 0.04 0.03 0.03 0.02 0.02 0.02 0.02 0.02 0.04 0.03 0.03 0.04 0.05 0.06 0.06 0.06 0.06 0.05 0.04 0.03 0.03 0.03 0.03 0.03 0.02
0.00 0.00 0.01 0.01 0.01 0.00 0.01 0.02 0.02 0.01 0.01 0.00 0.00 0.00 0.00 0.00 0.00 0.00 0.01 0.01 0.01 0.01 0.02 0.03 0.02 0.01 0.02 0.02 0.01 0.01 0.02 0.03 0.04 0.03 0.03 0.03 0.03 0.04 0.05 0.05 0.05 0.04 0.03 0.02 0.02 0.02 0.03 0.03 0.03
0.00 0.00 0.00 0.01 0.01 0.01 0.01 0.01 0.02 0.02 0.01 0.00 0.00 0.00 0.00 0.00 0.00 0.00 0.00 0.02 0.01 0.01 0.02 0.02 0.01 0.01 0.01 0.01 0.01 0.01 0.01 0.02 0.03 0.03 0.05 0.04 0.04 0.04 0.03 0.04 0.05 0.05 0.04 0.04 0.03 0.03 0.02 0.03 0.04
0.00 0.00 0.00 0.00 0.00 0.01 0.01 0.01 0.02 0.01 0.01 0.00 0.00 0.00 0.00 0.01 0.00 0.00 0.00 0.00 0.00 0.00 0.02 0.01 0.01 0.01 0.01 0.01 0.01 0.01 0.02 0.02 0.02 0.02 0.04 0.04 0.04 0.03 0.03 0.04 0.05 0.04 0.03 0.04 0.03 0.02 0.02 0.04 0.06
0.00 0.00 0.00 0.00 0.00 0.00 0.01 0.01 0.01 0.01 0.00 0.00 0.00 0.00 0.01 0.01 0.00 0.00 0.00 0.01 0.00 0.00 0.01 0.01 0.01 0.01 0.00 0.01 0.01 0.01 0.01 0.02 0.02 0.01 0.02 0.03 0.03 0.03 0.03 0.03 0.03 0.03 0.01 0.02 0.02 0.03 0.03 0.04 0.05
0.00 0.00 0.00 0.00 0.00 0.00 0.00 0.01 0.01 0.00 0.00 0.01 0.00 0.00 0.01 0.01 0.00 0.00 0.00 0.00 0.00 0.00 0.01 0.01 0.01 0.01 0.01 0.01 0.01 0.01 0.01 0.02 0.02 0.01 0.02 0.03 0.03 0.04 0.04 0.03 0.03 0.02 0.01 0.01 0.02 0.03 0.04 0.04 0.05
0.00 0.00 0.00 0.00 0.00 0.00 0.00 0.01 0.01 0.01 0.00 0.00 0.00 0.00 0.00 0.00 0.00 0.00 0.01 0.00 0.00 0.01 0.01 0.01 0.01 0.00 0.00 0.01 0.01 0.01 0.01 0.02 0.02 0.01 0.02 0.03 0.03 0.04 0.04 0.05 0.05 0.03 0.02 0.02 0.02 0.03 0.03 0.04 0.05
0.00 0.00 0.00 0.00 0.00 0.00 0.00 0.00 0.01 0.01 0.01 0.00 0.00 0.01 0.00 0.00 0.00 0.00 0.01 0.01 0.01 0.00 0.00 0.00 0.00 0.00 0.00 0.00 0.01 0.01 0.02 0.03 0.03 0.03 0.03 0.03 0.02 0.02 0.04 0.05 0.04 0.02 0.02 0.03 0.03 0.04 0.04 0.04 0.04
0.00 0.00 0.00 0.00 0.00 0.00 0.00 0.01 0.00 0.00 0.00 0.00 0.00 0.00 0.00 0.00 0.00 0.00 0.00 0.00 0.00 0.00 0.00 0.00 0.00 0.00 0.00 0.00 0.00 0.00 0.01 0.02 0.03 0.05 0.06 0.07 0.03 0.03 0.03 0.04 0.03 0.02 0.02 0.02 0.04 0.05 0.05 0.02 0.02
0.00 0.00 0.00 0.00 0.00 0.00 0.00 0.01 0.01 0.00 0.00 0.00 0.00 0.00 0.00 0.00 0.00 0.00 0.00 0.00 0.00 0.00 0.00 0.00 0.00 0.00 0.00 0.00 0.00 0.00 0.00 0.00 0.04 0.09 0.08 0.06 0.02 0.01 0.02 0.02 0.02 0.01 0.01 0.01 0.01 0.01 0.01 0.00 0.01
0.00 0.00 0.00 0.00 0.00 0.00 0.00 0.00 0.00 0.00 0.00 0.00 0.00 0.00 0.00 0.00 0.00 0.00 0.00 0.00 0.00 0.00 0.00 0.00 0.00 0.00 0.00 0.00 0.00 0.00 0.00 0.00 0.02 0.07 0.05 0.02 0.00 0.01 0.00 0.01 0.00 0.00 0.00 0.00 0.00 0.00 0.00 0.00 0.01
0.00 0.00 0.00 0.00 0.00 0.00 0.00 0.00 0.00 0.00 0.00 0.01 0.01 0.00 0.00 0.00 0.00 0.00 0.00 0.00 0.00 0.00 0.00 0.00 0.00 0.00 0.00 0.00 0.00 0.00 0.00 0.00 0.00 0.01 0.01 0.00 0.00 0.00 0.00 0.00 0.00 0.00 0.00 0.00 0.00 0.00 0.01 0.02 0.02
0.00 0.00 0.00 0.00 0.00 0.00 0.00 0.00 0.00 0.00 0.01 0.01 0.01 0.00 0.00 0.00 0.00 0.00 0.00 0.00 0.00 0.01 0.01 0.01 0.01 0.01 0.01 0.01 0.00 0.00 0.00 0.00 0.00 0.00 0.00 0.00 0.00 0.00 0.00 0.00 0.00 0.00 0.00 0.00 0.00 0.01 0.02 0.03 0.03
0.00 0.00 0.00 0.00 0.00 0.00 0.00 0.00 0.01 0.01 0.01 0.01 0.01 0.00 0.00 0.00 0.00 0.00 0.00 0.00 0.01 0.01 0.02 0.02 0.02 0.02 0.01 0.01 0.00 0.00 0.00 0.00 0.00 0.00 0.00 0.00 0.00 0.00 0.00 0.01 0.01 0.01 0.00 0.00 0.01 0.01 0.03 0.03 0.03
0.00 0.00 0.00 0.00 0.00 0.00 0.00 0.00 0.01 0.01 0.01 0.01 0.01 0.00 0.00 0.01 0.01 0.00 0.01 0.01 0.01 0.01 0.02 0.03 0.03 0.02 0.02 0.02 0.02 0.01 0.01 0.01 0.00 0.00 0.00 0.00 0.00 0.00 0.00 0.01 0.01 0.01 0.01 0.01 0.01 0.02 0.02 0.02 0.02
0.00 0.00 0.00 0.00 0.00 0.00 0.00 0.00 0.00 0.01 0.01 0.01 0.01 0.01 0.00 0.00 0.01 0.01 0.01 0.02 0.01 0.01 0.02 0.02 0.03 0.04 0.03 0.03 0.02 0.02 0.02 0.03 0.03 0.02 0.01 0.00 0.00 0.00 0.00 0.01 0.02 0.03 0.02 0.03 0.03 0.03 0.04 0.03 0.02
0.00 0.00 0.00 0.00 0.00 0.00 0.00 0.00 0.00 0.01 0.01 0.01 0.01 0.01 0.01 0.01 0.02 0.03 0.04 0.05 0.04 0.05 0.06 0.05 0.06 0.08 0.07 0.07 0.04 0.02 0.02 0.03 0.03 0.02 0.02 0.02 0.01 0.01 0.02 0.02 0.02 0.03 0.04 0.04 0.04 0.04 0.05 0.04 0.03
0.00 0.00 0.00 0.00 0.00 0.00 0.00 0.00 0.00 0.01 0.02 0.03 0.02 0.04 0.08 0.08 0.07 0.08 0.06 0.05 0.06 0.08 0.11 0.13 0.11 0.10 0.08 0.06 0.04 0.03 0.03 0.05 0.04 0.03 0.03 0.04 0.02 0.03 0.03 0.03 0.03 0.03 0.04 0.05 0.05 0.04 0.04 0.05 0.05
0.00 0.00 0.00 0.00 0.00 0.00 0.00 0.00 0.01 0.01 0.02 0.03 0.03 0.05 0.07 0.05 0.04 0.04 0.03 0.03 0.06 0.06 0.09 0.11 0.09 0.09 0.08 0.07 0.07 0.08 0.08 0.06 0.04 0.04 0.05 0.05 0.05 0.07 0.05 0.03 0.04 0.03 0.03 0.04 0.03 0.03 0.04 0.05 0.06
0.00 0.00 0.00 0.00 0.00 0.00 0.00 0.01 0.01 0.02 0.02 0.02 0.02 0.02 0.02 0.02 0.01 0.01 0.02 0.03 0.04 0.03 0.04 0.04 0.06 0.08 0.11 0.13 0.10 0.07 0.06 0.06 0.05 0.03 0.04 0.06 0.08 0.07 0.05 0.04 0.04 0.04 0.03 0.03 0.02 0.03 0.05 0.04 0.05
0.00 0.00 0.00 0.00 0.00 0.00 0.00 0.00 0.01 0.01 0.01 0.01 0.01 0.01 0.01 0.02 0.01 0.01 0.02 0.04 0.06 0.06 0.07 0.06 0.07 0.09 0.12 0.16 0.12 0.07 0.05 0.04 0.04 0.04 0.05 0.07 0.08 0.06 0.06 0.06 0.06 0.06 0.05 0.03 0.02 0.03 0.03 0.03 0.04
0.00 0.00 0.00 0.00 0.00 0.00 0.00 0.00 0.00 0.01 0.01 0.01 0.01 0.00 0.01 0.01 0.01 0.01 0.02 0.04 0.06 0.08 0.08 0.10 0.10 0.09 0.11 0.13 0.10 0.07 0.05 0.04 0.04 0.05 0.07 0.09 0.09 0.08 0.08 0.08 0.08 0.08 0.07 0.06 0.05 0.04 0.04 0.04 0.04
0.00 0.00 0.00 0.00 0.00 0.00 0.00 0.00 0.00 0.00 0.00 0.01 0.01 0.01 0.01 0.02 0.01 0.02 0.03 0.04 0.05 0.07 0.08 0.08 0.08 0.08 0.10 0.11 0.09 0.07 0.05 0.04 0.04 0.03 0.04 0.07 0.08 0.08 0.09 0.11 0.11 0.11 0.09 0.08 0.08 0.08 0.07 0.07 0.05
0.00 0.00 0.00 0.00 0.00 0.00 0.00 0.00 0.00 0.00 0.00 0.01 0.01 0.02 0.01 0.01 0.02 0.03 0.04 0.05 0.06 0.06 0.08 0.08 0.09 0.10 0.11 0.12 0.11 0.09 0.09 0.09 0.05 0.04 0.04 0.06 0.05 0.05 0.09 0.15 0.13 0.13 0.11 0.10 0.11 0.09 0.06 0.06 0.04
0.00 0.00 0.00 0.00 0.00 0.00 0.00 0.00 0.00 0.00 0.00 0.00 0.01 0.02 0.02 0.01 0.03 0.04 0.05 0.06 0.07 0.08 0.09 0.10 0.11 0.14 0.16 0.16 0.13 0.12 0.11 0.11 0.08 0.07 0.06 0.06 0.06 0.07 0.11 0.12 0.13 0.14 0.13 0.12 0.13 0.12 0.09 0.06 0.05
0.00 0.00 0.00 0.00 0.00 0.00 0.00 0.00 0.00 0.00 0.00 0.01 0.01 0.02 0.02 0.02 0.03 0.03 0.03 0.03 0.04 0.05 0.06 0.10 0.14 0.17 0.21 0.20 0.16 0.11 0.09 0.07 0.07 0.06 0.06 0.05 0.05 0.07 0.11 0.10 0.12 0.14 0.13 0.12 0.13 0.12 0.11 0.10 0.08
0.00 0.00 0.00 0.00 0.00 0.00 0.00 0.00 0.00 0.00 0.00 0.00 0.01 0.02 0.02 0.02 0.02 0.02 0.02 0.02 0.03 0.04 0.05 0.08 0.11 0.11 0.14 0.15 0.13 0.09 0.07 0.07 0.08 0.07 0.04 0.04 0.05 0.07 0.08 0.08 0.09 0.11 0.10 0.11 0.13 0.11 0.11 0.12 0.10
0.00 0.00 0.00 0.00 0.00 0.00 0.00 0.00 0.00 0.00 0.00 0.00 0.01 0.01 0.01 0.02 0.03 0.03 0.03 0.03 0.04 0.05 0.05 0.04 0.05 0.07 0.06 0.06 0.07 0.06 0.05 0.08 0.11 0.10 0.08 0.05 0.05 0.07 0.07 0.08 0.10 0.09 0.08 0.08 0.09 0.10 0.10 0.10 0.08
0.00 0.00 0.00 0.00 0.00 0.00 0.00 0.00 0.00 0.00 0.00 0.00 0.01 0.02 0.02 0.02 0.03 0.02 0.03 0.05 0.04 0.06 0.06 0.06 0.05 0.06 0.06 0.06 0.07 0.07 0.06 0.07 0.09 0.09 0.07 0.06 0.04 0.04 0.06 0.07 0.06 0.05 0.05 0.05 0.05 0.07 0.08 0.07 0.05
MSLP
1007.84 1008.86 1010.04 1011.20 1012.16 1012.82 1013.11 1013.07 1012.81 1012.45 1012.16 1012.03 1012.11 1012.37 1012.74 1013.10 1013.38 1013.48 1013.41 1013.20 1012.93 1012.69 1012.55 1012.57 1012.72 1012.98 1013.28 1013.54 1013.72 1013.80 1013.80 1013.76 1013.73 1013.75 1013.84 1013.99 1014.18 1014.37 1014.53 1014.62 1014.64 1014.63 1014.62 1014.65 1014.74 1014.91 1015.16 1015.46 1015.77
1008.27 1009.47 1010.75 1011.92 1012.82 1013.33 1013.42 1013.17 1012.69 1012.15 1011.72 1011.50 1011.53 1011.79 1012.18 1012.60 1012.93 1013.10 1013.10 1012.97 1012.77 1012.60 1012.52 1012.59 1012.79 1013.08 1013.40 1013.69 1013.90 1014.01 1014.06 1014.07 1014.09 1014.15 1014.28 1014.46 1014.65 1014.83 1014.95 1014.99 1014.98 1014.93 1014.90 1014.92 1015.03 1015.22 1015.50 1015.82 1016.15
1008.83 1010.15 1011.47 1012.60 1013.38 1013.72 1013.63 1013.18 1012.54 1011.89 1011.38 1011.13 1011.16 1011.45 1011.88 1012.34 1012.72 1012.94 1012.99 1012.90 1012.75 1012.63 1012.60 1012.70 1012.93 1013.24 1013.58 1013.89 1014.12 1014.27 1014.36 1014.42 1014.49 1014.60 1014.76 1014.96 1015.15 1015.30 1015.39 1015.40 1015.35 1015.29 1015.25 1015.28 1015.40 1015.62 1015.91 1016.25 1016.58
1009.51 1010.87 1012.17 1013.20 1013.84 1014.01 1013.75 1013.16 1012.42 1011.72 1011.20 1010.97 1011.05 1011.38 1011.86 1012.36 1012.77 1013.01 1013.08 1013.02 1012.90 1012.81 1012.80 1012.92 1013.17 1013.49 1013.84 1014.15 1014.40 1014.58 1014.70 1014.79 1014.91 1015.06 1015.25 1015.45 1015.64 1015.78 1015.85 1015.84 1015.79 1015.72 1015.69 1015.74 1015.88 1016.11 1016.41 1016.74 1017.06
1010.25 1011.59 1012.79 1013.69 1014.16 1014.18 1013.79 1013.13 1012.36 1011.68 1011.21 1011.05 1011.19 1011.58 1012.09 1012.61 1013.02 1013.27 1013.34 1013.29 1013.19 1013.11 1013.13 1013.26 1013.51 1013.82 1014.16 1014.46 1014.71 1014.89 1015.03 1015.15 1015.30 1015.48 1015.69 1015.91 1016.11 1016.25 1016.33 1016.32 1016.28 1016.23 1016.22 1016.29 1016.44 1016.67 1016.97 1017.28 1017.57
1010.97 1012.22 1013.28 1014.00 1014.32 1014.21 1013.75 1013.07 1012.35 1011.74 1011.38 1011.31 1011.53 1011.96 1012.49 1013.00 1013.39 1013.62 1013.69 1013.64 1013.55 1013.49 1013.53 1013.67 1013.91 1014.21 1014.52 1014.80 1015.02 1015.19 1015.33 1015.46 1015.63 1015.84 1016.08 1016.32 1016.54 1016.70 1016.79 1016.81 1016.79 1016.77 1016.79 1016.87 1017.04 1017.27 1017.54 1017.82 1018.07
1011.58 1012.68 1013.55 1014.10 1014.26 1014.06 1013.58 1012.96 1012.33 1011.86 1011.62 1011.67 1011.95 1012.41 1012.93 1013.41 1013.77 1013.97 1014.02 1013.98 1013.92 1013.89 1013.95 1014.11 1014.35 1014.62 1014.90 1015.13 1015.32 1015.46 1015.58 1015.72 1015.90 1016.13 1016.39 1016.67 1016.92 1017.11 1017.23 1017.28 1017.29 1017.30 1017.34 1017.44 1017.60 1017.82 1018.07 1018.31 1018.52
1011.99 1012.90 1013.57 1013.93 1013.97 1013.73 1013.28 1012.75 1012.27 1011.95 1011.85 1012.00 1012.35 1012.81 1013.30 1013.74 1014.05 1014.21 1014.27 1014.25 1014.23 1014.25 1014.35 1014.53 1014.77 1015.02 1015.26 1015.45 1015.59 1015.69 1015.80 1015.93 1016.12 1016.37 1016.66 1016.97 1017.25 1017.47 1017.62 1017.70 1017.74 1017.77 1017.82 1017.93 1018.09 1018.29 1018.51 1018.72 1018.90
1012.18 1012.87 1013.33 1013.52 1013.47 1013.20 1012.82 1012.42 1012.10 1011.95 1011.99 1012.23 1012.61 1013.07 1013.51 1013.89 1014.16 1014.30 1014.37 1014.39 1014.43 1014.52 1014.68 1014.90 1015.15 1015.40 1015.60 1015.75 1015.84 1015.92 1016.00 1016.13 1016.33 1016.60 1016.91 1017.24 1017.54 1017.79 1017.96 1018.06 1018.11 1018.15 1018.21 1018.31 1018.46 1018.65 1018.85 1019.04 1019.20
1012.14 1012.62 1012.88 1012.93 1012.80 1012.54 1012.25 1011.98 1011.83 1011.83 1011.99 1012.30 1012.70 1013.13 1013.53 1013.85 1014.08 1014.22 1014.32 1014.40 1014.52 1014.70 1014.93 1015.20 1015.48 1015.72 1015.90 1016.02 1016.09 1016.14 1016.21 1016.34 1016.55 1016.83 1017.16 1017.51 1017.82 1018.08 1018.25 1018.36 1018.41 1018.45 1018.50 1018.59 1018.73 1018.90 1019.09 1019.28 1019.44
1011.97 1012.24 1012.33 1012.25 1012.07 1011.84 1011.63 1011.49 1011.48 1011.61 1011.86 1012.21 1012.61 1013.00 1013.35 1013.63 1013.84 1013.99 1014.14 1014.30 1014.51 1014.78 1015.09 1015.42 1015.73 1015.98 1016.16 1016.27 1016.33 1016.37 1016.44 1016.58 1016.80 1017.09 1017.43 1017.78 1018.10 1018.35 1018.52 1018.62 1018.66 1018.68 1018.72 1018.80 1018.92 1019.09 1019.28 1019.47 1019.64
1011.77 1011.86 1011.80 1011.63 1011.41 1011.20 1011.06 1011.02 1011.11 1011.33 1011.64 1012.00 1012.38 1012.73 1013.04 1013.28 1013.49 1013.67 1013.87 1014.12 1014.42 1014.78 1015.17 1015.55 1015.90 1016.18 1016.37 1016.48 1016.55 1016.60 1016.69 1016.84 1017.07 1017.37 1017.72 1018.06 1018.37 1018.61 1018.77 1018.85 1018.87 1018.88 1018.91 1018.97 1019.09 1019.25 1019.45 1019.65 1019.83
1011.66 1011.62 1011.44 1011.19 1010.94 1010.74 1010.65 1010.67 1010.82 1011.07 1011.38 1011.73 1012.07 1012.38 1012.65 1012.88 1013.09 1013.32 1013.58 1013.89 1014.27 1014.70 1015.16 1015.59 1015.97 1016.28 1016.50 1016.64 1016.74 1016.82 1016.93 1017.11 1017.35 1017.65 1017.99 1018.32 1018.61 1018.84 1018.98 1019.05 1019.07 1019.07 1019.09 1019.16 1019.27 1019.43 1019.63 1019.84 1020.04
1011.75 1011.60 1011.34 1011.04 1010.76 1010.56 1010.47 1010.51 1010.65 1010.88 1011.17 1011.47 1011.76 1012.02 1012.26 1012.48 1012.71 1012.98 1013.29 1013.66 1014.10 1014.57 1015.06 1015.53 1015.94 1016.27 1016.53 1016.71 1016.86 1016.98 1017.14 1017.34 1017.59 1017.89 1018.21 1018.52 1018.80 1019.00 1019.14 1019.21 1019.24 1019.26 1019.29 1019.36 1019.48 1019.65 1019.85 1020.07 1020.28
1012.04 1011.83 1011.53 1011.19 1010.89 1010.68 1010.56 1010.56 1010.65 1010.82 1011.03 1011.25 1011.47 1011.69 1011.90 1012.13 1012.38 1012.68 1013.03 1013.43 1013.89 1014.38 1014.88 1015.36 1015.78 1016.15 1016.45 1016.69 1016.89 1017.07 1017.27 1017.49 1017.75 1018.04 1018.34 1018.63 1018.88 1019.08 1019.22 1019.31 1019.37 1019.42 1019.48 1019.57 1019.71 1019.88 1020.09 1020.30 1020.51
1012.49 1012.27 1011.95 1011.61 1011.30 1011.05 1010.90 1010.82 1010.82 1010.88 1010.97 1011.10 1011.24 1011.40 1011.60 1011.82 1012.09 1012.41 1012.78 1013.20 1013.66 1014.14 1014.62 1015.08 1015.52 1015.91 1016.26 1016.56 1016.82 1017.07 1017.31 1017.56 1017.81 1018.08 1018.35 1018.61 1018.84 1019.04 1019.21 1019.33 1019.43 1019.53 1019.64 1019.77 1019.92 1020.11 1020.31 1020.52 1020.72
1012.99 1012.79 1012.50 1012.19 1011.88 1011.62 1011.40 1011.24 1011.11 1011.03 1010.99 1010.99 1011.04 1011.15 1011.31 1011.54 1011.83 1012.17 1012.54 1012.96 1013.39 1013.83 1014.28 1014.73 1015.17 1015.58 1015.97 1016.33 1016.67 1016.98 1017.26 1017.52 1017.77 1018.02 1018.25 1018.47 1018.69 1018.89 1019.07 1019.24 1019.41 1019.57 1019.73 1019.91 1020.09 1020.29 1020.49 1020.69 1020.87
1013.42 1013.28 1013.07 1012.81 1012.55 1012.28 1012.01 1011.74 1011.48 1011.24 1011.04 1010.90 1010.85 1010.89 1011.03 1011.25 1011.55 1011.90 1012.28 1012.68 1013.08 1013.48 1013.90 1014.32 1014.75 1015.19 1015.62 1016.05 1016.45 1016.82 1017.14 1017.42 1017.65 1017.86 1018.05 1018.23 1018.42 1018.62 1018.83 1019.06 1019.29 1019.52 1019.74 1019.96 1020.18 1020.38 1020.58 1020.77 1020.94
1013.67 1013.63 1013.54 1013.39 1013.20 1012.95 1012.64 1012.28 1011.87 1011.46 1011.09 1010.80 1010.63 1010.59 1010.69 1010.91 1011.21 1011.58 1011.96 1012.35 1012.72 1013.09 1013.47 1013.87 1014.30 1014.77 1015.25 1015.74 1016.21 1016.63 1016.98 1017.26 1017.48 1017.65 1017.79 1017.93 1018.09 1018.29 1018.52 1018.79 1019.08 1019.37 1019.65 1019.92 1020.16 1020.37 1020.57 1020.75 1020.92
1013.69 1013.80 1013.87 1013.88 1013.80 1013.60 1013.26 1012.81 1012.26 1011.67 1011.11 1010.65 1010.35 1010.22 1010.27 1010.47 1010.79 1011.17 1011.57 1011.96 1012.32 1012.68 1013.03 1013.42 1013.86 1014.35 1014.88 1015.43 1015.95 1016.42 1016.81 1017.09 1017.29 1017.42 1017.51 1017.61 1017.74 1017.92 1018.17 1018.47 1018.80 1019.14 1019.47 1019.76 1020.02 1020.25 1020.44 1020.62 1020.79
1013.51 1013.80 1014.08 1014.27 1014.33 1014.20 1013.86 1013.32 1012.63 1011.85 1011.10 1010.46 1009.99 1009.76 1009.74 1009.93 1010.26 1010.67 1011.09 1011.50 1011.88 1012.23 1012.59 1012.98 1013.44 1013.96 1014.53 1015.12 1015.70 1016.21 1016.62 1016.91 1017.09 1017.19 1017.25 1017.30 1017.40 1017.57 1017.82 1018.13 1018.48 1018.85 1019.20 1019.51 1019.78 1020.01 1020.20 1020.38 1020.55
1013.22 1013.73 1014.22 1014.62 1014.84 1014.79 1014.45 1013.83 1012.99 1012.02 1011.05 1010.21 1009.58 1009.21 1009.13 1009.28 1009.62 1010.06 1010.53 1010.98 1011.39 1011.77 1012.14 1012.55 1013.03 1013.57 1014.18 1014.82 1015.43 1015.98 1016.41 1016.72 1016.89 1016.97 1017.00 1017.03 1017.10 1017.25 1017.48 1017.78 1018.14 1018.51 1018.86 1019.17 1019.43 1019.65 1019.84 1020.02 1020.20
1012.94 1013.67 1014.39 1015.00 1015.37 1015.40 1015.05 1014.35 1013.35 1012.18 1010.99 1009.93 1009.12 1008.62 1008.44 1008.56 1008.90 1009.38 1009.90 1010.40 1010.86 1011.29 1011.70 1012.13 1012.62 1013.19 1013.82 1014.48 1015.12 1015.69 1016.15 1016.47 1016.66 1016.73 1016.75 1016.77 1016.82 1016.94 1017.15 1017.44 1017.77 1018.12 1018.45 1018.74 1018.98 1019.18 1019.36 1019.54 1019.73
1012.77 1013.71 1014.64 1015.43 1015.93 1016.02 1015.65 1014.85 1013.69 1012.32 1010.92 1009.65 1008.65 1008.01 1007.74 1007.81 1008.15 1008.66 1009.23 1009.80 1010.32 1010.80 1011.24 1011.70 1012.21 1012.78 1013.41 1014.08 1014.74 1015.32 1015.80 1016.15 1016.35 1016.45 1016.48 1016.49 1016.53 1016.64 1016.83 1017.08 1017.38 1017.69 1017.98 1018.24 1018.44 1018.62 1018.77 1018.93 1019.12
1012.75 1013.86 1014.97 1015.89 1016.48 1016.60 1016.20 1015.30 1013.99 1012.44 1010.84 1009.38 1008.21 1007.43 1007.07 1007.10 1007.44 1007.97 1008.59 1009.22 1009.79 1010.31 1010.79 1011.27 1011.78 1012.34 1012.96 1013.62 1014.27 1014.86 1015.35 1015.72 1015.96 1016.08 1016.14 1016.17 1016.22 1016.32 1016.48 1016.71 1016.96 1017.22 1017.46 1017.66 1017.82 1017.95 1018.08 1018.22 1018.40
1012.83 1014.07 1015.30 1016.31 1016.94 1017.06 1016.61 1015.61 1014.19 1012.49 1010.73 1009.12 1007.82 1006.94 1006.51 1006.49 1006.82 1007.37 1008.02 1008.69 1009.32 1009.87 1010.37 1010.85 1011.34 1011.88 1012.47 1013.10 1013.72 1014.31 1014.81 1015.20 1015.47 1015.63 1015.73 1015.79 1015.86 1015.96 1016.11 1016.30 1016.51 1016.71 1016.89 1017.04 1017.14 1017.23 1017.31 1017.42 1017.56
1012.94 1014.25 1015.51 1016.55 1017.18 1017.27 1016.78 1015.72 1014.21 1012.43 1010.58 1008.89 1007.52 1006.57 1006.09 1006.04 1006.36 1006.92 1007.59 1008.28 1008.93 1009.50 1010.00 1010.47 1010.94 1011.43 1011.98 1012.55 1013.14 1013.70 1014.20 1014.61 1014.91 1015.12 1015.27 1015.37 1015.47 1015.58 1015.72 1015.88 1016.05 1016.20 1016.32 1016.40 1016.45 1016.48 1016.51 1016.57 1016.67
1012.95 1014.25 1015.50 1016.50 1017.09 1017.15 1016.62 1015.53 1014.01 1012.21 1010.37 1008.68 1007.30 1006.34 1005.85 1005.80 1006.10 1006.66 1007.33 1008.02 1008.67 1009.23 1009.72 1010.16 1010.59 1011.03 1011.52 1012.04 1012.58 1013.11 1013.60 1014.01 1014.35 1014.60 1014.79 1014.94 1015.07 1015.20 1015.34 1015.48 1015.61 1015.72 1015.78 1015.81 1015.79 1015.76 1015.73 1015.73 1015.77
1012.75 1013.98 1015.15 1016.07 1016.59 1016.60 1016.06 1015.01 1013.54 1011.83 1010.07 1008.46 1007.16 1006.26 1005.80 1005.76 1006.06 1006.60 1007.25 1007.92 1008.55 1009.09 1009.55 1009.95 1010.33 1010.73 1011.16 1011.62 1012.11 1012.60 1013.06 1013.48 1013.83 1014.12 1014.36 1014.55 1014.72 1014.87 1015.02 1015.15 1015.26 1015.32 1015.34 1015.31 1015.24 1015.15 1015.05 1014.97 1014.94
1012.32 1013.42 1014.45 1015.26 1015.70 1015.67 1015.15 1014.17 1012.83 1011.27 1009.68 1008.24 1007.08 1006.29 1005.89 1005.88 1006.18 1006.69 1007.31 1007.95 1008.53 1009.04 1009.47 1009.84 1010.19 1010.54 1010.91 1011.32 1011.76 1012.22 1012.66 1013.07 1013.43 1013.75 1014.02 1014.25 1014.45 1014.63 1014.79 1014.92 1015.01 1015.05 1015.03 1014.96 1014.83 1014.68 1014.51 1014.35 1014.22
Thickness
5836 5835 5832 5821 5800 5776 5770 5780 5789 5789 5791 5799 5800 5794 5783 5775 5769 5764 5779 5788 5788 5786 5785 5784 5783 5782 5781 5780 5780 5779 5779 5778 5777 5777 5776 5775 5774 5772 5771 5770 5769 5768 5767 5765 5764 5763 5761 5759 5758
5837 5834 5826 5811 5782 5759 5768 5786 5788 5792 5798 5803 5800 5794 5784 5778 5782 5780 5783 5787 5788 5786 5785 5783 5782 5781 5780 5779 5778 5778 5777 5777 5776 5775 5774 5773 5772 5771 5769 5768 5767 5766 5765 5763 5762 5760 5759 5757 5755
5837 5834 5815 5797 5778 5766 5775 5790 5793 5801 5807 5804 5796 5793 5786 5779 5783 5784 5787 5789 5788 5786 5784 5782 5781 5780 5779 5778 5777 5776 5775 5775 5774 5773 5772 5771 5770 5769 5767 5766 5765 5764 5762 5761 5759 5758 5757 5755 5753
5834 5822 5808 5788 5781 5787 5792 5798 5802 5801 5805 5806 5797 5787 5789 5792 5791 5790 5791 5789 5786 5785 5783 5781 5780 5778 5777 5776 5775 5774 5773 5772 5772 5771 5770 5769 5768 5767 5765 5764 5763 5762 5760 5759 5757 5756 5754 5753 5751
5829 5810 5789 5776 5784 5796 5805 5809 5808 5801 5799 5801 5797 5783 5781 5791 5795 5793 5790 5788 5785 5783 5781 5780 5778 5777 5776 5774 5773 5772 5771 5771 5770 5769 5768 5767 5766 5765 5763 5762 5761 5759 5758 5756 5755 5754 5752 5751 5749
5812 5800 5775 5769 5784 5799 5808 5814 5809 5802 5799 5800 5795 5784 5780 5790 5791 5790 5789 5786 5784 5782 5780 5778 5776 5775 5774 5773 5772 5771 5770 5769 5768 5767 5766 5765 5764 5763 5761 5760 5759 5757 5756 5754 5753 5752 5751 5749 5748
5805 5790 5778 5781 5783 5794 5807 5815 5808 5802 5798 5800 5799 5783 5781 5786 5790 5790 5788 5785 5782 5780 5778 5776 5774 5773 5772 5771 5770 5769 5768 5767 5766 5766 5765 5764 5762 5761 5759 5758 5757 5755 5754 5752 5751 5750 5749 5748 5746
5812 5792 5781 5780 5785 5793 5812 5815 5814 5808 5803 5811 5805 5786 5781 5788 5791 5789 5785 5782 5779 5778 5776 5774 5773 5772 5771 5770 5769 5767 5766 5765 5764 5763 5762 5761 5760 5759 5757 5756 5755 5753 5752 5750 5749 5748 5747 5746 5745
5816 5785 5775 5785 5790 5799 5813 5811 5813 5819 5811 5809 5809 5801 5799 5796 5792 5785 5780 5777 5775 5775 5773 5772 5771 5770 5769 5768 5767 5766 5764 5763 5762 5761 5760 5759 5757 5757 5755 5754 5753 5752 5750 5749 5747 5746 5746 5744 5743
5803 5779 5790 5803 5808 5809 5814 5813 5812 5810 5802 5800 5801 5802 5800 5795 5789 5783 5779 5775 5773 5772 5771 5771 5770 5769 5767 5767 5765 5764 5763 5761 5760 5759 5757 5756 5755 5754 5753 5753 5751 5750 5749 5748 5746 5745 5744 5743 5742
5804 5793 5804 5813 5819 5818 5815 5814 5817 5807 5797 5802 5801 5799 5797 5792 5787 5784 5781 5778 5776 5774 5772 5770 5769 5768 5766 5765 5764 5762 5761 5760 5758 5757 5755 5754 5753 5752 5751 5751 5750 5749 5747 5746 5745 5743 5742 5742 5741
5803 5806 5812 5818 5824 5820 5817 5816 5813 5811 5814 5821 5815 5809 5801 5793 5789 5786 5783 5780 5777 5774 5772 5771 5769 5767 5765 5764 5762 5761 5760 5758 5756 5755 5753 5752 5751 5750 5749 5749 5748 5747 5745 5744 5743 5742 5741 5740 5740
5803 5807 5816 5821 5822 5822 5820 5815 5815 5816 5824 5823 5814 5805 5800 5796 5792 5789 5787 5783 5779 5775 5773 5771 5770 5767 5765 5763 5762 5760 5758 5757 5755 5754 5752 5751 5750 5749 5748 5747 5746 5745 5744 5743 5742 5741 5740 5739 5738
5806 5809 5812 5817 5819 5822 5816 5814 5813 5814 5821 5816 5808 5802 5800 5797 5793 5789 5786 5782 5779 5777 5774 5772 5770 5768 5765 5763 5761 5759 5757 5756 5754 5753 5751 5750 5749 5747 5746 5745 5744 5743 5743 5742 5741 5740 5739 5738 5737
5807 5803 5805 5811 5816 5818 5814 5802 5807 5816 5817 5809 5805 5802 5799 5797 5794 5791 5789 5786 5783 5780 5777 5773 5770 5768 5765 5763 5761 5759 5757 5755 5754 5752 5751 5749 5748 5747 5745 5744 5743 5742 5741 5741 5740 5739 5738 5737 5736
5797 5788 5783 5799 5809 5813 5805 5787 5807 5815 5812 5804 5803 5801 5798 5796 5795 5794 5792 5788 5785 5781 5777 5774 5772 5768 5765 5763 5761 5758 5756 5755 5754 5752 5751 5750 5748 5747 5745 5743 5742 5741 5740 5739 5738 5737 5736 5735 5734
5771 5767 5774 5788 5803 5806 5799 5790 5805 5813 5809 5803 5802 5801 5798 5795 5795 5796 5794 5790 5787 5783 5778 5774 5772 5769 5766 5763 5760 5758 5756 5754 5753 5752 5752 5750 5749 5747 5745 5743 5742 5740 5739 5738 5738 5736 5734 5733 5732
5759 5765 5770 5776 5793 5797 5791 5791 5800 5807 5807 5803 5802 5801 5798 5797 5798 5798 5795 5792 5788 5784 5779 5775 5772 5769 5766 5763 5759 5757 5755 5753 5753 5752 5752 5751 5749 5747 5744 5742 5741 5739 5738 5736 5736 5734 5733 5732 5731
5771 5768 5766 5775 5791 5790 5785 5787 5794 5801 5801 5799 5798 5799 5798 5800 5801 5799 5796 5793 5788 5783 5779 5775 5771 5769 5766 5762 5758 5755 5753 5752 5752 5752 5751 5750 5749 5747 5744 5742 5741 5739 5737 5736 5735 5733 5731 5730 5729
5769 5764 5764 5773 5786 5785 5780 5781 5792 5797 5801 5804 5802 5801 5802 5799 5798 5797 5796 5794 5790 5785 5781 5777 5773 5771 5768 5765 5762 5759 5756 5754 5753 5752 5751 5750 5748 5747 5744 5742 5741 5739 5737 5736 5734 5733 5730 5729 5728
5761 5760 5762 5765 5773 5778 5775 5769 5780 5792 5799 5802 5804 5805 5804 5802 5799 5798 5797 5794 5791 5787 5784 5781 5776 5772 5769 5767 5763 5758 5754 5751 5750 5750 5751 5751 5749 5747 5745 5743 5741 5740 5738 5736 5735 5733 5730 5727 5727
5750 5768 5768 5766 5756 5747 5762 5741 5767 5780 5786 5794 5800 5803 5804 5804 5802 5799 5797 5794 5793 5790 5787 5783 5778 5774 5770 5767 5762 5757 5753 5749 5750 5751 5752 5751 5749 5747 5745 5743 5742 5740 5738 5736 5735 5734 5732 5730 5726
5759 5771 5768 5764 5752 5742 5748 5742 5754 5772 5775 5788 5799 5804 5805 5805 5804 5801 5800 5797 5795 5791 5787 5783 5778 5774 5770 5767 5764 5760 5756 5754 5752 5752 5751 5750 5749 5748 5746 5744 5742 5740 5738 5737 5735 5734 5733 5732 5729
5767 5759 5749 5737 5732 5722 5739 5737 5746 5762 5779 5790 5800 5804 5806 5806 5805 5802 5801 5798 5794 5791 5787 5782 5777 5773 5770 5767 5765 5761 5757 5754 5752 5751 5749 5749 5749 5748 5747 5744 5742 5740 5738 5736 5735 5735 5733 5732 5731
5755 5730 5711 5712 5702 5710 5736 5737 5747 5778 5789 5795 5800 5804 5807 5806 5804 5801 5798 5795 5792 5789 5786 5782 5777 5772 5769 5766 5764 5761 5759 5756 5754 5752 5751 5748 5747 5746 5746 5745 5743 5741 5739 5737 5736 5735 5734 5733 5731
5741 5732 5709 5701 5699 5710 5730 5732 5757 5785 5792 5798 5802 5804 5805 5803 5803 5802 5801 5797 5792 5789 5785 5781 5776 5772 5769 5766 5762 5761 5760 5757 5756 5754 5752 5750 5748 5748 5747 5745 5743 5742 5740 5739 5737 5735 5734 5733 5732
5733 5729 5734 5712 5709 5710 5719 5736 5762 5784 5788 5792 5796 5799 5800 5801 5802 5801 5800 5796 5792 5789 5786 5783 5777 5772 5768 5765 5762 5760 5759 5758 5756 5754 5752 5750 5749 5748 5747 5746 5744 5742 5741 5739 5738 5736 5735 5733 5732
5746 5734 5716 5707 5695 5698 5717 5729 5742 5769 5777 5784 5788 5792 5796 5799 5799 5799 5797 5795 5792 5789 5786 5783 5778 5773 5769 5766 5764 5762 5760 5757 5755 5753 5751 5750 5749 5748 5746 5745 5743 5742 5741 5739 5738 5736 5735 5733 5732
5731 5727 5717 5705 5707 5696 5700 5722 5762 5769 5776 5780 5783 5787 5791 5793 5795 5796 5795 5793 5791 5787 5783 5780 5777 5772 5768 5766 5764 5761 5758 5756 5754 5752 5750 5749 5748 5746 5745 5743 5742 5741 5740 5739 5737 5736 5735 5733 5732
5742 5731 5720 5710 5702 5702 5703 5723 5770 5772 5775 5778 5780 5784 5787 5789 5790 5792 5791 5789 5786 5783 5780 5778 5775 5771 5768 5765 5761 5758 5756 5754 5752 5750 5749 5748 5746 5745 5744 5742 5741 5740 5739 5738 5737 5736 5735 5734 5732